Погода в Лиде

Погода в Лиде : погода сейчас, прогноз погоды и архив. Всё, что Вы хотите узнать о погоде в Лиде!

Хотите узнать прогноз погоды в Лиде? Тогда Вам сюда: Погода в Лиде

Поиск расширенной информации на нашем сайте:

Другие новости

Новости СМИ2

Главная страница сайта

Новости сайта

03.07.2017

Напоминаем, что на нашем специализированном сайте Метеоцентр.Азия вы можете получить высокодетализированные автоматические прогнозы погоды по пунктам России, СНГ и мира в авиационном формате (включающие направление и скорость ветра, видимость, явления погоды, количество и форму облачности, нижнюю и верхнюю границу облачности).


Погода в Лиде - сегодня

Время (UTC), дата Ветер
(°,м/с) 
Видим.   Явления Облачность Т
(°С)
Тd
(°С)
f(%) Тe
(°С)
Pmin
(гПа)
dP
(гПа)
Po
(мм)
O2
(г/м3)
Тmin Tmax R s Состояние
почвы
21 19.07.17 110 (В) 10 км    ясно 
+15.4 +12.1 81 +21  1017.1  -0.1  749  283           
00 20.07.17 130 (ЮВ) 10 км    3/0 средняя 
[Ac trans]
+13.6 +11.5 87 +18  1016.1  -1  748  285           
03 20.07.17 тихо ()   7000 м  дымка  5/0 средняя 
[Ac trans]
+11.8 +11 95 +14  1015.3  -0.9  747  287           
06 20.07.17 060 (СВ) 10 км    9/0 средняя, верхняя 
[Ac trans|Ci fib]
+17.3 +12.8 75 +24  1014.5  -0.5  747  281  +11.6         
09 20.07.17 170 (Ю) 13000 м    8/3 600 м верхняя 
[Cu med, cong|Ci fib]
+22.9 +13.4 55 +29  1013.3  -0.9  746  275           
12 20.07.17 200 (Ю) 15000 м    4/3 600 м кучево-дожд., верхняя 
[Cb calv|Ci fib]
+25.7 +10.3 38 +27  1011.7  -1.2  745  273           
15 20.07.17 340 (С) 15000 м    3/1 1000 м верхняя 
[Cu hum|Ci fib]
+24.9 +13.7 50 +32  1011.1  -0.7  745  272           
18 20.07.17 030 (СВ) 13000 м    ясно 
+21.6 +13.8 61 +28  1011.5  0.2  745  275    +26.5       
21 20.07.17 030 (СВ) 10 км    8/0 средняя 
[Ac trans]
+17.8 +11.8 68 +23  1013  1.3  746  280           
00 21.07.17 030 (СВ) 10 км    3/0 верхняя 
[Ci fib]
+14.7 +10.2 74 +17  1013.5  0.2  746  283           
03 21.07.17 040 (СВ) 10 км    3/0 верхняя 
[Ci fib]
+12.2 +9.3 82 +13  1013.6  746  286           
06 21.07.17 070 (В) 12000 м    4/0 верхняя 
[Ci fib]
+17.4 +10.5 64 +20  1014.2  0.8  747  281  +12         
09 21.07.17 040 (СВ) 14000 м    3/0 средняя, верхняя 
[Ac trans|Ci fib]
+20.7 +10.6 52 +23  1014.5  0.5  747  278           
12 21.07.17 030 (СВ) 15000 м    9/0 средняя 
[Ac trans]
+21.4 +9.9 48 +23  1014.6  0.1  747  277           
15 21.07.17 040 (СВ) 12000 м    9/0 средняя 
[Ac trans]
+22.2 +11.3 50 +25  1013.9  -0.6  747  276           
18 21.07.17 020 (С) 10 км    9/0 средняя 
[Ac trans]
+19.4 +11.7 61 +24  1014.2  0.1  747  279    +22.5       
21 21.07.17 060 (СВ) 10 км  слаб. ливневой дождь  10/8 500 м кучево-дожд., средняя 
[Cb calv|Ac As]
+17.3 +10.7 65 +20  1014.6  0.3  747  281      0.0     
00 22.07.17 030 (СВ) 10 км  {ливн. осадки}  9/0 средняя 
[Ac As]
+16.7 +13.7 82 +25  1014.8  0.2  747  281      0.0     
03 22.07.17 050 (СВ) 10 км    8/0 средняя 
[Ac trans]
+14.9 +11.5 80 +19  1014.9  -0.1  747  283      0.0     
06 22.07.17 050 (СВ) 13000 м    9/0 средняя 
[Ac trans]
+17.6 +12.2 71 +23  1015.8  1.2  748  281  +13.9    0.0     
09 22.07.17 050 (СВ) 15000 м    8/3 1000 м средняя 
[Cu hum|Ac trans]
+21.8 +11 50 +24  1016.4  0.8  749  277           
12 22.07.17 070 (В) 15000 м    8/5 1000 м средняя 
[Cu med, cong|Ac trans]
+22.9 +8.9 41 +23  1016.6  0.2  749  277           
15 22.07.17 050 (СВ) 15000 м    6/3 600 м средняя 
[Cu hum|Ac trans]
+23.6 +12 48 +28  1016.5  0.1  749  275           
18 22.07.17 060 (СВ) 14000 м    6/0 средняя 
[Ac trans]
+21.5 +12.1 55 +26  1016.8  0.1  749  277    +24.5       
21 22.07.17 тихо ()   10 км    ясно 
+14.5 +12.5 88 +19  1018.2  0.9  750  284           
Время (UTC), дата Ветер
(°,м/с) 
Видим.   Явления Облачность Т
(°С)
Тd
(°С)
f(%) Тe
(°С)
Pmin
(гПа)
dP
(гПа)
Po
(мм)
O2
(г/м3)
Тmin Tmax R s Состояние
почвы

Для получения пояснительной информации подведите курсор к названию столбца.

ПОГОДА в Лиде - архив

Всё, что Вы хотите узнать о погоде в Лиде - удобно и подробно!

Выберите нужную дату (начиная с 1 января 2015* года) и нажмите кнопку "Найти".
Будут отображены архивные сводки погоды по пункту Лида, начиная с указанной даты.


Отображать данные в формате CSV (для использования в таблицах Excel)


Внимание! Наш архив погоды предназначен исключительно для личного некоммерческого использования в познавательных целях. Если Вам необходимы официальные справки о состоянии погоды (для производственных, юридических, коммерческих и т.п. целей), обращайтесь в органы Росгидромета.

*Примечание: данная дата относится к архиву по метеостанциям СССР (Россия, СНГ, Балтия).
Архив по метеостанциям Зарубежной Европы и Азии (кроме Китая) хранится 10 дней, по другим регионам земного шара (Китай, Африка, Америка, Австралия, Океания) - 1 день.

Лида - район местоположения метеостанции


Название, широта, долгота, высота метеостанции:
Лида 53.9°ш. 25.3°д. 157 м над ур. моря [Беларусь]

Дополнительная информация

В oтличие oт бoльшинства пoгoдных сайтoв мы публикуем пoдрoбную метеoинфoрмацию в детальнoм прoфессиoнальнoм фoрмате.

Характеристики температуры и влажнoсти вoздуха измеряются на высoте 2 м в тени вдали oт зданий и деревьев.
Скoрoсть ветра измеряется на высoте 10 м (на урoвне рoста челoвека скoрoсть ветра ниже в 1.5-2 раза). Если метеoстанция нахoдится в гoрoде или в лесу, тo скoрoсть ветра занижена на 2-4 м/с пo сравнению с oткрытым местoм. Скoрoсть ветра над акватoриями крупных рек и oзёр, а также на вершинах хoлмoв на 2-5 м/с выше, чем в oбычных услoвиях.
Атмoсфернoе давление в разных тoчках местнoсти мoжет значительнo oтличаться oт давления на метеoстанции, в зависимoсти oт услoвий рельефа (при пoдъёме на 10 м давление пoнижается примернo на 1 мм рт.ст.).